DELTA 1 DEB, 20349

Orbit data source: Space-Track

DELTA 1 DEB, 20349 is space debris in LEO originally from a launch on Thu, 29 Jul 1976 UTC launched from the Air Force Western Test Range (AFWTR). Debris objects in space refer to the collection of defunct objects orbiting the Earth. Examples of debris include non-operational satellites, rocket bodies, and fragments generated from explosions, collisions, or faulty payload assembly.

Loading next visibility...
Identifier
20349, 1976-077FR
Orbit
LEO
Country
Flag of USUS
Related business
Manufacturer
Unknown
Mission
Spacecraft
Bus & Motor
Unknown
Mass
Unknown
Launch date (UTC)
1976-07-29 (49 years ago)
Launch vehicle
Unknown
Launch site
Air Force Western Test Range (AFWTR)
Object type
Payload
Rocket body
Debris
Shape & HBR
Unknown shape, 0.1 m
Radar Cross Section
Small (<0.1 m²)

Expand to show TLE details & history
Last TLE update: 1 day ago

TLE from 1 day ago
0 DELTA 1 DEB
1 20349U 76077FR  25352.31961487 -.00000328  00000-0 -52202-2 0  9999
2 20349 102.5658 123.7481 0620675  90.2159 303.2143 11.33665334535289
Epoch: 2025-12-18T07:40Z
TLE epoch observation values (Epoch: 2025-12-18T07:40:14.724Z)
Latitude
26.55969°
Longitude
-84.8567°
Altitude
1,734.133 km
Speed
7.122 km/s
True Right ascension
07h 49m 31s
True Declination
26° 26' 20"
Sunlit
Object was in full shadow at epoch
Visualization orbit readout
Latitude
Unknown
Longitude
Unknown
Altitude
Unknown
Speed
Unknown
Apparent Right ascension
Unknown
Apparent Declination
Unknown
Sunlit
N/A
Visualization observer readout
Local Sidereal Time
06:08:11
Azimuth
Unknown
Elevation
Unknown
Doppler factor
Unknown
Orbital elements
Apogee altitude
2,509.368 km
Perigee altitude
1,470.592 km
Semi-major axis
8,368.117 km
Eccentricity
0.06207
Inclination
102.5658°
RAAN
123.7481°
Arg. of periapsis
90.2159°
True anomaly
297.01244°
Mean anomaly
303.2143°
Eccentric anomaly
300.13885°
Mean motion
2.83532 °/min
Orbital period
126.97 mins
BSTAR
-0.0052202
Loading maneuver chart data...
Computing Atmospheric mass density...
Loading historical data...
Loading historical data...
Loading historical data...
Loading historical data...
Loading historical data...
Loading historical data...
Loading historical data...

Documentation

Showing up to 5 results
|